Location: Greenwich
(51.4790°N, 0.0090°E)
Time: 06:55:29
(UTC+01:00)

Tiros 1 - Pass Details

Date: 28 April 2024
Orbit: 624 x 657 km, 48.4° (Epoch: 25 May)

Event Time Altitude Azimuth Distance (km) Brightness Sun altitude
Rises 23:35:50 0° 250° (WSW) 2,946 10.6 -21.6°
Reaches altitude 10° 23:38:13 10° 246° (WSW) 2,032 9.7 -21.8°
Enters shadow 23:40:52 32° 230° (SW) 1,107 8.1 -21.9°
